This demonstration page uses our WeatherBlox Daily Observations layout. Learn more.

Left ArrowRight Arrow

Hourly Observations for July 30, 2018

Temp ( °F °C ) Dew Point ( °F °C ) Humidity (%) Winds ( mph kmh ) Pressure ( in mb ) Visibility ( mi km ) Precip ( " mm )
12:15 am 00:15 Mostly Cloudy 62 16.6 60 15.7 94 94 N 6 9 30.12 1020 7 11 N/A
12:35 am 00:35 Partly Cloudy 61 16.3 60 15.5 95 95 WNW 3 6 30.12 1020 7 11 N/A
12:55 am 00:55 Partly Cloudy with Mist and Fog 60 15.8 59 15 95 95 NW 3 6 30.12 1020 5 8 N/A
1:15 am 01:15 Clear 60 15.5 58 14.5 94 94 NW 3 6 30.12 1020 7 11 N/A
1:35 am 01:35 Clear 60 15.3 58 14.5 95 95 NNW 3 6 30.09 1019 7 11 N/A
1:55 am 01:55 Clear 60 15.3 58 14.5 95 95 NNW 5 7 30.09 1019 7 11 N/A
2:15 am 02:15 Partly Cloudy 59 14.8 57 14 95 95 W 3 6 30.12 1020 7 11 N/A
2:35 am 02:35 Mostly Cloudy 59 15 57 14.1 94 94 W 5 7 30.12 1020 7 11 N/A
2:55 am 02:55 Mostly Cloudy 59 15.1 58 14.3 95 95 N N/A 30.09 1019 7 11 N/A
3:15 am 03:15 Partly Cloudy 58 14.7 57 13.9 95 95 WNW 3 6 30.12 1020 7 11 N/A
3:35 am 03:35 Partly Cloudy with Nearby Thunderstorms 58 14.7 57 13.9 95 95 WNW 3 6 30.12 1020 7 11 N/A
3:55 am 03:55 Mostly Cloudy 59 14.8 57 14 95 95 WNW 7 11 30.12 1020 7 11 N/A
4:15 am 04:15 Cloudy with Nearby Thunderstorms 60 15.3 58 14.5 95 95 W 7 11 30.12 1020 7 11 N/A
4:35 am 04:35 Cloudy 60 15.7 59 14.8 94 94 WSW 6 9 30.09 1019 7 11 N/A
4:55 am 04:55 Cloudy 61 16 59 15 94 94 W 3 6 30.09 1019 10 16 N/A
5:15 am 05:15 Cloudy 60 15.8 58 14.7 93 93 WSW 3 6 30.09 1019 7 11 N/A
5:35 am 05:35 Partly Cloudy 60 15.3 58 14.3 94 94 NW 5 7 30.09 1019 7 11 N/A
5:55 am 05:55 Partly Cloudy 59 15 57 14 94 94 WNW 8 13 30.09 1019 7 11 N/A
6:15 am 06:15 Cloudy with Nearby Thunderstorms 60 15.3 58 14.3 94 94 N 5 7 30.09 1019 7 11 N/A
6:35 am 06:35 Cloudy 60 15.3 58 14.4 94 94 NNW 5 7 30.12 1020 7 11 N/A
6:55 am 06:55 Mostly Cloudy 59 15 57 14 94 94 NNE 6 9 30.12 1020 7 11 N/A
7:15 am 07:15 Partly Cloudy 58 14.7 57 13.7 94 94 NE 3 6 30.12 1020 10 16 N/A
7:35 am 07:35 Sunny 59 15 57 14 94 94 N 3 6 30.12 1020 10 16 N/A
7:55 am 07:55 Partly Cloudy 59 15.1 57 14.1 94 94 NNW 3 6 30.12 1020 10 16 N/A
8:15 am 08:15 Mostly Cloudy 60 15.8 58 14.6 93 93 N N/A 30.12 1020 10 16 N/A
8:35 am 08:35 Partly Cloudy 62 16.7 58 14.7 88 88 N 7 11 30.12 1020 10 16 N/A
8:55 am 08:55 Sunny 63 17.3 59 14.9 86 86 NNW 7 11 30.12 1020 10 16 N/A
9:15 am 09:15 Sunny 64 17.6 59 15.1 85 85 NNW 6 9 30.12 1020 10 16 N/A
9:35 am 09:35 Sunny 65 18.5 59 15.2 81 81 NNW 7 11 30.09 1019 10 16 N/A
9:55 am 09:55 Sunny 67 19.2 59 15.2 78 78 NNW 9 15 30.12 1020 10 16 N/A
10:15 am 10:15 Sunny 68 19.9 60 15.3 75 75 NW 7 11 30.09 1019 10 16 N/A
10:35 am 10:35 Partly Cloudy 69 20.6 60 15.7 74 74 NW 9 15 30.09 1019 10 16 N/A
10:55 am 10:55 Mostly Cloudy 69 20.5 61 16 76 76 NNW 9 15 30.09 1019 10 16 N/A
11:15 am 11:15 Cloudy 69 20.7 61 16.2 76 76 NNW 9 15 30.09 1019 10 16 N/A
11:35 am 11:35 Mostly Cloudy 70 21.3 61 15.9 71 71 N 6 9 30.09 1019 10 16 N/A
11:55 am 11:55 Mostly Cloudy 71 21.5 60 15.5 69 69 N N/A 30.06 1018 10 16 N/A
12:15 pm 12:15 Mostly Cloudy 71 21.8 60 15.6 68 68 N 3 6 30.06 1018 7 11 N/A
12:35 pm 12:35 Cloudy with Light Rain 67 19.7 62 16.6 82 82 NW 9 15 30.09 1019 7 11 0.01 0.25
12:55 pm 12:55 Cloudy 68 20 63 17.2 84 84 WNW 12 19 30.09 1019 10 16 0.01 0.25
1:15 pm 13:15 Cloudy 68 20.1 61 16 77 77 NW 8 13 30.09 1019 7 11 N/A
1:35 pm 13:35 Mostly Cloudy with Nearby Thunderstorms 72 22.3 61 16.1 68 68 NW 9 15 30.06 1018 10 16 N/A
1:55 pm 13:55 Cloudy with Strong Thunderstorms 62 16.4 56 13.2 82 82 NNW 6 9 30.15 1021 1 1 0.38 9.65
2:15 pm 14:15 Cloudy 61 16 57 13.7 86 86 ESE 3 6 30.15 1021 10 16 0.03 0.76
2:35 pm 14:35 Mostly Cloudy with Thunderstorms 62 16.5 57 14 85 85 N N/A 30.12 1020 10 16 0.03 0.76
2:55 pm 14:55 Partly Cloudy 66 18.9 60 15.8 82 82 SE 3 6 30.09 1019 10 16 0.03 0.76
3:15 pm 15:15 Mostly Cloudy with Nearby Thunderstorms 69 20.8 62 16.5 77 77 N N/A 30.09 1019 10 16 N/A
3:35 pm 15:35 Cloudy 69 20.7 59 15 70 70 NE 10 17 30.09 1019 10 16 N/A
3:55 pm 15:55 Cloudy 69 20.6 59 15.2 71 71 ENE 13 20 30.09 1019 10 16 N/A
4:15 pm 16:15 Cloudy with Rain 67 19.3 60 15.3 78 78 NE 7 11 30.12 1020 5 8 0.01 0.25
4:35 pm 16:35 Cloudy 64 18 60 15.5 85 85 NNE 6 9 30.15 1021 5 8 0.05 1.27
4:55 pm 16:55 Cloudy with Drizzle 65 18.3 61 16 87 87 N 5 7 30.12 1020 10 16 0.06 1.52
5:15 pm 17:15 Cloudy with Light Rain 65 18.6 60 15.6 83 83 E 6 9 30.12 1020 10 16 N/A
5:35 pm 17:35 Cloudy 65 18.5 59 15 80 80 N N/A 30.12 1020 10 16 N/A
5:55 pm 17:55 Cloudy 66 19 60 15.7 81 81 N N/A 30.12 1020 10 16 N/A
6:15 pm 18:15 Cloudy with Light Rain 66 19 60 15.5 80 80 NNE 3 6 30.12 1020 7 11 N/A
6:35 pm 18:35 Cloudy with Light Rain 64 17.7 60 15.6 88 88 NW 5 7 30.15 1021 5 8 0.09 2.29
6:55 pm 18:55 Mostly Cloudy 65 18.6 61 16 85 85 N N/A 30.12 1020 10 16 0.09 2.29
7:15 pm 19:15 Partly Cloudy 67 19.7 60 15.7 78 78 N 5 7 30.12 1020 10 16 N/A
7:35 pm 19:35 Sunny 68 20 60 15.5 75 75 NNE 6 9 30.12 1020 10 16 N/A
7:55 pm 19:55 Sunny 67 19.3 57 14 72 72 NNE 5 7 30.12 1020 10 16 N/A
8:15 pm 20:15 Sunny 66 19 58 14.4 75 75 N 3 6 30.12 1020 10 16 N/A
8:35 pm 20:35 Sunny 64 18 58 14.4 80 80 NNE 6 9 30.15 1021 10 16 N/A
8:55 pm 20:55 Sunny 62 16.9 56 13.4 80 80 NE 6 9 30.15 1021 10 16 N/A
9:15 pm 21:15 Clear 62 16.5 56 13.1 80 80 NNE 6 9 30.15 1021 10 16 N/A
9:35 pm 21:35 Clear 60 15.6 56 13.2 86 86 N 5 7 30.15 1021 10 16 N/A
9:55 pm 21:55 Clear 59 15.2 56 13.3 89 89 N N/A 30.15 1021 10 16 N/A
10:15 pm 22:15 Clear 59 14.8 56 13.1 90 90 N N/A 30.21 1023 10 16 N/A
10:35 pm 22:35 Clear 58 14.5 55 13 91 91 WNW 3 6 30.21 1023 10 16 N/A
10:55 pm 22:55 Clear 57 14 55 13 94 94 WNW 5 7 30.21 1023 10 16 N/A
11:15 pm 23:15 Clear 58 14.2 55 13 93 93 WNW 5 7 30.21 1023 10 16 N/A
11:35 pm 23:35 Clear 57 13.9 55 12.8 93 93 NW 7 11 30.21 1023 10 16 N/A
11:55 pm 23:55 Clear 57 13.7 55 12.6 93 93 N N/A 30.21 1023 10 16 N/A

Powered by AerisWeather